weather.gov     
National Weather Service

Regional Weather Roundup
NWS Homepage
This page is being discontinued on March 12, 2014.
The same data is available at this site. Please update your bookmarks.
Thank you, and we apologize for the inconvenience.
Please send an email to SR-SRH.Webmaster@noaa.gov with any concerns.


Current Version
Previous Version:    01  02  03  04  05  06  07  08  09  10  11  12  13  14  15  16  17  18  19  20  21  22  23  24  25  26  27  28  29  30  
   31  32  33  34  35  36  37  38  39  40  41  42  43  44  45  46  47  48  49  50  51  52  53  54  
[Printable]
690
ASUS44 KOUN 221410
RWROK

WEATHER ROUNDUP FOR OKLAHOMA
NATIONAL WEATHER SERVICE NORMAN OK
800 AM CST MON DEC 22 2014

NOTE: "FAIR" INDICATES FEW OR NO CLOUDS BELOW 12,000 FEET WITH NO
      SIGNIFICANT WEATHER AND/OR OBSTRUCTIONS TO VISIBILITY.

OKZ001>007-009>012-014-015-017-221500-
NORTHWEST OKLAHOMA AND THE PANHANDLE

CITY           SKY/WX    TMP DP  RH WIND       PRES   REMARKS
GAGE           MOCLDY    43  36  76 NW14      29.64R
ENID/WOODRING  CLOUDY    46  46 100 CALM      29.56R FOG
$$

OKZ016-021>023-033>039-044-045-221500-
SOUTHWEST OKLAHOMA

CITY           SKY/WX    TMP DP  RH WIND       PRES   REMARKS
LAWTON/REGL    CLOUDY    45  44  97 N9        29.58S
LAWTON/FT SILL CLOUDY    45  45 100 N9        29.57R
FREDERICK      CLOUDY    42  41  96 NW12      29.59R FOG
CLINTON        PTCLDY    43  38  82 NW14      29.62R
HOBART         MOCLDY    41  41 100 NW8       29.61R FOG
ALTUS AFB      PTCLDY    42  42 100 N12       29.61R
$$

OKZ018>020-024>031-221500-
CENTRAL OKLAHOMA

CITY           SKY/WX    TMP DP  RH WIND       PRES   REMARKS
OKLAHOMA CITY  CLOUDY    48  45  89 W3        29.58R FOG
OKC/WILEY POST CLOUDY    48  46  93 W3        29.59R FOG
OKC/TINKER AFB CLOUDY    48  46  92 S8        29.58R
STILLWATER     CLOUDY    48  46  93 CALM      29.57R FOG
GUTHRIE        CLOUDY    48  46  93 SW3       29.58R FOG
$$

OKZ008-013-054>072-221500-
NORTHEAST OKLAHOMA

CITY           SKY/WX    TMP DP  RH WIND       PRES   REMARKS
TULSA          DRIZZLE   48  47  96 SE9       29.59S
TULSA/JONES    CLOUDY    48  46  93 S5        29.59F
PONCA CITY     CLOUDY    47  46  97 S6        29.57R FOG
BARTLESVILLE   CLOUDY    46  45  96 S5        29.60S FOG
MUSKOGEE       CLOUDY    47  45  93 SE6       29.62R
$$

OKZ032-040>043-046>053-073>077-221500-
SOUTH CENTRAL/SOUTHEAST OKLAHOMA

CITY           SKY/WX    TMP DP  RH WIND       PRES   REMARKS
ARDMORE/DWNTWN MOCLDY    46  45  93 S3        29.58R
MCALESTER      CLOUDY    52  48  86 S9G18     29.60R
$$





U.S. Dept. of Commerce
NOAA National Weather Service
1325 East West Highway
Silver Spring, MD 20910
E-mail: w-nws.webmaster@noaa.gov
Page last modified: May 16, 2007
NATIONAL WEATHER SERVICE: for Safety, for Work, for Fun - FOR LIFE